TimeCST,TemperatureF,Dew PointF,Humidity,Sea Level PressureIn,VisibilityMPH,Wind Direction,Wind SpeedMPH,Gust SpeedMPH,PrecipitationIn,Events,Conditions,WindDirDegrees,DateUTC
12:53 AM,21.0,15.1,78,30.33,10.0,SE,5.8,-,N/A,,Overcast,130,2014-02-08 06:53:00
1:53 AM,21.0,15.1,78,30.32,10.0,East,3.5,-,N/A,,Overcast,90,2014-02-08 07:53:00
2:53 AM,21.0,16.0,81,30.30,10.0,ESE,5.8,-,N/A,,Overcast,110,2014-02-08 08:53:00
3:53 AM,21.0,17.1,85,30.29,3.0,ESE,4.6,-,0.00,Snow,Light Snow,120,2014-02-08 09:53:00
4:00 AM,21.0,17.1,85,30.28,2.5,SE,3.5,-,0.00,Snow,Light Snow,130,2014-02-08 10:00:00
4:28 AM,21.0,17.1,85,30.27,2.0,ESE,3.5,-,0.00,Snow,Light Snow,120,2014-02-08 10:28:00
4:45 AM,21.0,18.0,88,30.27,1.8,ESE,3.5,-,0.00,Snow,Light Snow,120,2014-02-08 10:45:00
4:53 AM,21.0,18.0,88,30.29,2.0,Calm,Calm,-,0.00,Snow,Light Snow,0,2014-02-08 10:53:00
5:26 AM,21.0,18.0,88,30.28,3.0,Calm,Calm,-,0.01,Snow,Light Snow,0,2014-02-08 11:26:00
5:53 AM,21.0,18.0,88,30.30,5.0,Calm,Calm,-,0.01,,Overcast,0,2014-02-08 11:53:00
6:53 AM,21.9,18.0,85,30.29,7.0,ENE,3.5,-,N/A,,Overcast,70,2014-02-08 12:53:00
7:53 AM,21.9,18.0,85,30.30,10.0,East,4.6,-,N/A,,Overcast,100,2014-02-08 13:53:00
8:53 AM,21.9,18.0,85,30.30,10.0,Calm,Calm,-,N/A,,Overcast,0,2014-02-08 14:53:00
9:53 AM,24.1,19.0,81,30.30,5.0,SE,4.6,-,N/A,,Haze,140,2014-02-08 15:53:00
10:53 AM,25.0,21.0,85,30.30,10.0,SSE,3.5,-,N/A,,Overcast,150,2014-02-08 16:53:00
11:01 AM,26.1,21.0,81,30.27,10.0,South,5.8,-,N/A,,Overcast,180,2014-02-08 17:01:00
11:11 AM,26.1,21.0,81,30.27,10.0,South,5.8,-,N/A,,Overcast,170,2014-02-08 17:11:00
11:33 AM,26.1,21.0,81,30.26,10.0,South,5.8,-,N/A,,Overcast,190,2014-02-08 17:33:00
11:53 AM,26.1,21.0,81,30.25,10.0,SSE,9.2,-,N/A,,Overcast,160,2014-02-08 17:53:00
12:26 PM,28.0,23.0,81,30.21,10.0,SSE,9.2,-,N/A,,Overcast,160,2014-02-08 18:26:00
12:34 PM,28.0,23.0,81,30.21,10.0,South,8.1,-,N/A,,Overcast,170,2014-02-08 18:34:00
12:53 PM,28.0,23.0,81,30.21,10.0,South,6.9,-,N/A,,Overcast,170,2014-02-08 18:53:00
1:21 PM,28.9,24.1,82,30.19,10.0,South,5.8,-,N/A,,Overcast,190,2014-02-08 19:21:00
1:53 PM,28.9,23.0,78,30.19,10.0,SSE,3.5,-,N/A,,Overcast,160,2014-02-08 19:53:00
2:03 PM,28.9,24.1,82,30.18,10.0,South,3.5,-,N/A,,Overcast,170,2014-02-08 20:03:00
2:20 PM,28.9,24.1,82,30.18,9.0,West,5.8,-,N/A,,Overcast,270,2014-02-08 20:20:00
2:50 PM,30.2,24.8,80,30.18,9.0,SW,5.8,-,N/A,,Overcast,220,2014-02-08 20:50:00
2:53 PM,30.0,24.1,79,30.19,10.0,SSW,8.1,-,N/A,,Overcast,210,2014-02-08 20:53:00
3:53 PM,28.9,24.1,82,30.18,10.0,SSW,6.9,-,N/A,,Overcast,200,2014-02-08 21:53:00
4:53 PM,28.9,23.0,78,30.19,10.0,South,5.8,-,N/A,,Overcast,190,2014-02-08 22:53:00
5:04 PM,28.9,23.0,78,30.18,10.0,South,5.8,-,N/A,,Overcast,180,2014-02-08 23:04:00
5:53 PM,28.9,23.0,78,30.18,10.0,South,8.1,-,N/A,,Overcast,190,2014-02-08 23:53:00
6:53 PM,28.9,24.1,82,30.17,10.0,SSE,6.9,-,N/A,,Overcast,160,2014-02-09 00:53:00
7:53 PM,28.9,24.1,82,30.17,10.0,South,4.6,-,N/A,,Overcast,180,2014-02-09 01:53:00
8:53 PM,28.9,24.1,82,30.18,9.0,SSE,3.5,-,N/A,,Overcast,160,2014-02-09 02:53:00
9:53 PM,28.9,25.0,85,30.17,8.0,SSE,4.6,-,0.00,,Overcast,150,2014-02-09 03:53:00
10:53 PM,28.9,26.1,89,30.19,7.0,WSW,4.6,-,N/A,,Overcast,250,2014-02-09 04:53:00
11:29 PM,28.9,26.1,89,30.17,6.0,Calm,Calm,-,N/A,,Overcast,0,2014-02-09 05:29:00
11:53 PM,28.9,26.1,89,30.17,5.0,Calm,Calm,-,N/A,,Overcast,0,2014-02-09 05:53:00